Regional Weather Roundup
Issued by NWS

Home | Current Version | Previous Version | Graphics & Text | Print | Product List | Glossary On
Versions: 1 2 3 4 5 6 7 8 9 10 11 12 13 14 15 16 17 18 19 20 21 22 23 24 25 26 27 28 29 30 31 32 33 34 35 36 37 38 39 40 41 42 43 44 45 46 47 48 49 50
000
ASUS43 KLSX 310507
RWRMO

WEATHER SUMMARY FOR MISSOURI
NATIONAL WEATHER SERVICE SPRINGFIELD MO
1200 AM CDT FRI OCT 31 2014

NOTE: "FAIR" INDICATES FEW OR NO CLOUDS BELOW 12,000 FEET WITH NO
       SIGNIFICANT WEATHER AND/OR OBSTRUCTIONS TO VISIBILITY.
       CURRENT SKY AND/OR WEATHER CONDITIONS ARE NOT AVAILABLE FOR
       CHILLICOTHE AND FARMINGTON.

MOZ001>031-035>038-043-044-053-054-310600-
...NORTHERN AND WESTERN MISSOURI...

CITY           SKY/WX    TMP DP  RH WIND       PRES   REMARKS
KANSAS CTY INT CLEAR     49  41  74 N13       30.22R
KANSAS C DTWN  CLEAR     53  40  61 N12G20    30.21R
LEE`S SUMMIT   CLEAR     53  40  61 N22G28    30.19R
ST JOSEPH      CLOUDY    51  42  71 N10       30.24R
CHILLICOTHE      N/A     52  38  58 N6        30.17R
KIRKSVILLE     CLOUDY    50  43  77 N8        30.14R

$$
MOZ066>068-077>081-088>096-101>105-310600-
...SOUTHWEST MISSOURI...

CITY           SKY/WX    TMP DP  RH WIND       PRES   REMARKS
SPRINGFIELD    CLEAR     52  40  63 NW7       30.11R
JOPLIN         CLEAR     52  41  66 N8        30.17R

$$
MOZ032>034-039>042-045>050-055>058-069>072-310600-
...CENTRAL MISSOURI...

CITY           SKY/WX    TMP DP  RH WIND       PRES   REMARKS
COLUMBIA       CLEAR     45  42  89 N7        30.08R
JEFFERSON CITY CLEAR     46  45  96 NW5       30.08R
ROLLA          CLEAR     43  41  93 NW3       30.04S
SEDALIA        CLEAR     52  40  63 NW12      30.13R
WHITEMAN AFB   CLEAR     52  39  61 N16       30.13R
OSAGE BEACH    CLEAR     48  43  81 NW3       30.08R

$$
MOZ051-052-059>065-310600-
...EAST CENTRAL MISSOURI...

CITY           SKY/WX    TMP DP  RH WIND       PRES   REMARKS
ST LOUIS INTL  MOCLDY    50  45  83 NW7       30.05S
SPIRIT OF STL  CLOUDY    46  45  96 CALM      30.05R
ST CHARLES     PTCLDY    47  45  93 N9        30.05S

$$
MOZ072>076-082>087-097>100-106>115-310600-
...SOUTH CENTRAL AND SOUTHEAST MISSOURI...

CITY           SKY/WX    TMP DP  RH WIND       PRES   REMARKS
CAPE GIRARDEAU CLOUDY    53  50  89 CALM      30.01F
FARMINGTON       N/A     45  43  93 CALM      30.05S VSB 1/2
POPLAR BLUFF   MOCLDY    49  45  86 N3        30.00F
WEST PLAINS    CLEAR     50  42  74 NW7       30.05S

$$



USA.gov is the U.S. government's official web portal to all federal, state and local government web resources and services.